Weather History for Puyallup, WA

Change the Weather History Date:

Saturday, April 28, 2012

  Actual Average (KTCM) Record (KTCM)
Temperature  
Mean Temperature 51 °F -  
Max Temperature 60 °F 58 °F 77 °F (1968)
Min Temperature 42 °F 38 °F 30 °F (1955)
Degree Days  
Heating Degree Days 14    
Growing Degree Days 1 (Base 50)    
Moisture  
Dew Point 46 °F    
Average Humidity 79    
Maximum Humidity 100    
Minimum Humidity 59    
Precipitation  
Precipitation 0.00 in - - ()
Sea Level Pressure  
Sea Level Pressure 30.25 in    
Wind  
Wind Speed 1 mph (West)    
Max Wind Speed 7 mph    
Max Gust Speed -    
Visibility 10 miles    
Events      
Averages and records for this station are not official NWS values.
T = Trace of Precipitation, MM = Missing Value Source: NWS Daily Summary

Daily Weather History Graph

Daily Weather History Graph

Search for Another Location

Airport:

Trip Planner

Search our weather history database for the weather conditions in past years. The results will help you decide how hot, cold, wet, or windy it might be!

Date:

Astronomy

Apr. 28, 2012 Rise Set
Actual Time 5:57 AM PDT 8:16 PM PDT
Civil Twilight 5:23 AM PDT 8:50 PM PDT
Nautical Twilight 4:41 AM PDT 9:32 PM PDT
Astronomical Twilight 3:54 AM PDT 10:20 PM PDT
Moon 11:41 AM PDT (4/28) 1:47 AM PDT (4/28)
Length of Visible Light 15h 26m
Length of Day
14h 19m
Waxing Crescent, 44% of the Moon is Illuminated
Apr 28
Waxing Crescent
Apr 29
First Quarter
May 5
Full
May 12
Last Quarter
May 20
New

Hourly Weather History & Observations

Time (PDT) Temp. Dew Point Humidity Pressure Visibility Wind Dir Wind Speed Gust Speed Precip Events Conditions
12:15 AM 46.4 °F 46.4 °F 100% 30.29 in 10.0 mi Calm Calm - N/A   Mostly Cloudy
12:35 AM 46.4 °F 46.4 °F 100% 30.29 in 10.0 mi Calm Calm - N/A   Mostly Cloudy
1:15 AM 44.6 °F 44.6 °F 100% 30.29 in 10.0 mi Calm Calm - N/A   Mostly Cloudy
1:35 AM 46.4 °F 46.4 °F 100% 30.29 in 10.0 mi Calm Calm - N/A   Mostly Cloudy
1:55 AM 46.4 °F 46.4 °F 100% 30.29 in 10.0 mi Calm Calm - N/A   Mostly Cloudy
2:15 AM 44.6 °F 44.6 °F 100% 30.29 in 10.0 mi Calm Calm - N/A   Overcast
2:35 AM 44.6 °F 44.6 °F 100% 30.28 in 10.0 mi Calm Calm - N/A   Overcast
2:55 AM 44.6 °F 44.6 °F 100% 30.28 in 10.0 mi Calm Calm - N/A   Mostly Cloudy
3:15 AM 44.6 °F 44.6 °F 100% 30.27 in 10.0 mi Calm Calm - N/A   Partly Cloudy
3:55 AM 42.8 °F 42.8 °F 100% 30.27 in 9.0 mi Calm Calm - N/A   Mostly Cloudy
4:15 AM 44.6 °F 44.6 °F 100% 30.27 in 10.0 mi Calm Calm - N/A   Mostly Cloudy
4:35 AM 44.6 °F 44.6 °F 100% 30.27 in 10.0 mi Calm Calm - N/A   Mostly Cloudy
4:55 AM 44.6 °F 44.6 °F 100% 30.28 in 10.0 mi Calm Calm - N/A   Overcast
5:15 AM 44.6 °F 44.6 °F 100% 30.28 in 10.0 mi Calm Calm - N/A   Overcast
5:55 AM 44.6 °F 44.6 °F 100% 30.27 in 10.0 mi Calm Calm - N/A   Mostly Cloudy
6:35 AM 44.6 °F 44.6 °F 100% 30.27 in 10.0 mi Calm Calm - N/A   Mostly Cloudy
6:55 AM 44.6 °F 44.6 °F 100% 30.27 in 10.0 mi Calm Calm - N/A   Scattered Clouds
7:15 AM 46.4 °F 46.4 °F 100% 30.27 in 10.0 mi Calm Calm - N/A   Scattered Clouds
7:35 AM 46.4 °F 46.4 °F 100% 30.27 in 10.0 mi Calm Calm - N/A   Partly Cloudy
8:15 AM 48.2 °F 44.6 °F 87% 30.27 in 10.0 mi Calm Calm - N/A   Partly Cloudy
8:35 AM 50.0 °F 44.6 °F 82% 30.27 in 10.0 mi Calm Calm - N/A   Clear
8:55 AM 51.8 °F 44.6 °F 76% 30.27 in 10.0 mi Calm Calm - N/A   Clear
9:15 AM 51.8 °F 42.8 °F 71% 30.27 in 10.0 mi Calm Calm - N/A   Clear
9:35 AM 53.6 °F 44.6 °F 72% 30.27 in 10.0 mi SSW 3.5 mph - N/A   Clear
9:55 AM 53.6 °F 44.6 °F 72% 30.27 in 10.0 mi Calm Calm - N/A   Clear
10:15 AM 55.4 °F 44.6 °F 67% 30.27 in 10.0 mi West 3.5 mph - N/A   Clear
10:35 AM 55.4 °F 44.6 °F 67% 30.27 in 10.0 mi Calm Calm - N/A   Clear
10:55 AM 53.6 °F 42.8 °F 67% 30.27 in 10.0 mi Calm Calm - N/A   Clear
11:15 AM 55.4 °F 44.6 °F 67% 30.27 in 10.0 mi Calm Calm - N/A   Scattered Clouds
11:35 AM 55.4 °F 42.8 °F 63% 30.28 in 10.0 mi Calm Calm - N/A   Mostly Cloudy
11:55 AM 57.2 °F 44.6 °F 63% 30.27 in 10.0 mi West 4.6 mph - N/A   Mostly Cloudy
12:15 PM 57.2 °F 44.6 °F 63% 30.27 in 10.0 mi Calm Calm - N/A   Overcast
12:35 PM 57.2 °F 44.6 °F 63% 30.27 in 10.0 mi Calm Calm - N/A   Mostly Cloudy
12:55 PM 57.2 °F 44.6 °F 63% 30.26 in 10.0 mi WSW 3.5 mph - N/A   Mostly Cloudy
1:15 PM 57.2 °F 44.6 °F 63% 30.25 in 10.0 mi West 4.6 mph - N/A   Mostly Cloudy
1:35 PM 59.0 °F 44.6 °F 59% 30.25 in 10.0 mi SSW 3.5 mph - N/A   Overcast
1:55 PM 59.0 °F 46.4 °F 63% 30.25 in 10.0 mi WSW 6.9 mph - N/A   Overcast
2:15 PM 59.0 °F 44.6 °F 59% 30.25 in 10.0 mi Calm Calm - N/A   Mostly Cloudy
2:35 PM 60.8 °F 46.4 °F 59% 30.24 in 10.0 mi West 3.5 mph - N/A   Overcast
2:55 PM 60.8 °F 46.4 °F 59% 30.25 in 10.0 mi NW 3.5 mph - N/A   Mostly Cloudy
3:15 PM 59.0 °F 46.4 °F 63% 30.24 in 10.0 mi WNW 3.5 mph - N/A   Overcast
3:35 PM 60.8 °F 46.4 °F 59% 30.24 in 10.0 mi WSW 4.6 mph - N/A   Mostly Cloudy
4:15 PM 60.8 °F 46.4 °F 59% 30.23 in 10.0 mi West 3.5 mph - N/A   Mostly Cloudy
4:35 PM 60.8 °F 48.2 °F 63% 30.23 in 10.0 mi Calm Calm - N/A   Mostly Cloudy
4:55 PM 60.8 °F 48.2 °F 63% 30.22 in 10.0 mi Calm Calm - N/A   Mostly Cloudy
5:15 PM 60.8 °F 48.2 °F 63% 30.22 in 10.0 mi West 5.8 mph - N/A   Mostly Cloudy
5:35 PM 60.8 °F 48.2 °F 63% 30.21 in 10.0 mi Calm Calm - N/A   Overcast
5:55 PM 60.8 °F 46.4 °F 59% 30.22 in 10.0 mi Calm Calm - N/A   Overcast
6:15 PM 60.8 °F 48.2 °F 63% 30.22 in 10.0 mi Calm Calm - N/A   Mostly Cloudy
6:35 PM 60.8 °F 48.2 °F 63% 30.21 in 10.0 mi WNW 3.5 mph - N/A   Mostly Cloudy
6:55 PM 59.0 °F 48.2 °F 67% 30.21 in 10.0 mi West 3.5 mph - N/A   Overcast
7:15 PM 59.0 °F 48.2 °F 67% 30.20 in 10.0 mi West 3.5 mph - N/A   Overcast
7:35 PM 57.2 °F 48.2 °F 72% 30.20 in 10.0 mi Calm Calm - N/A   Mostly Cloudy
7:55 PM 57.2 °F 48.2 °F 72% 30.20 in 10.0 mi Calm Calm - N/A   Overcast
8:15 PM 57.2 °F 48.2 °F 72% 30.20 in 10.0 mi Calm Calm - N/A   Overcast
8:35 PM 57.2 °F 48.2 °F 72% 30.21 in 10.0 mi Calm Calm - N/A   Mostly Cloudy
8:55 PM 55.4 °F 50.0 °F 82% 30.20 in 10.0 mi Calm Calm - N/A   Mostly Cloudy
9:15 PM 55.4 °F 50.0 °F 82% 30.21 in 10.0 mi Calm Calm - N/A   Mostly Cloudy
9:35 PM 53.6 °F 50.0 °F 88% 30.21 in 10.0 mi Calm Calm - N/A   Scattered Clouds
9:55 PM 53.6 °F 50.0 °F 88% 30.21 in 10.0 mi Calm Calm - N/A   Mostly Cloudy
10:15 PM 53.6 °F 50.0 °F 88% 30.21 in 10.0 mi Calm Calm - N/A   Overcast
10:35 PM 53.6 °F 50.0 °F 88% 30.22 in 10.0 mi Calm Calm - N/A   Overcast
10:55 PM 53.6 °F 51.8 °F 94% 30.22 in 10.0 mi Calm Calm - N/A   Overcast
11:15 PM 53.6 °F 51.8 °F 94% 30.21 in 10.0 mi Calm Calm - N/A   Overcast
11:35 PM 53.6 °F 51.8 °F 94% 30.21 in 10.0 mi Calm Calm - N/A   Mostly Cloudy
11:55 PM 53.6 °F 51.8 °F 94% 30.20 in 10.0 mi Calm Calm - N/A   Mostly Cloudy